SB KEPS @ AMSAT $ORB11293.N 2Line Orbital Elements 11293.AMSAT
HR AMSAT ORBITAL ELEMENTS FOR AMATEUR SATELLITES IN NASA FORMAT FROM WA5QGD FORT WORTH,TX October 20, 2011 Send Subscribe/unsubscribe to KEPS at http://www.amsat.org/mailman/listinfo/keps BID: ORB11293.N
DECODE 2-LINE ELSETS WITH THE FOLLOWING KEY: 1 AAAAAU 00 0 0 BBBBB.BBBBBBBB .CCCCCCCC 00000-0 00000-0 0 DDDZ 2 AAAAA EEE.EEEE FFF.FFFF GGGGGGG HHH.HHHH III.IIII JJ.JJJJJJJJKKKKKZ KEY: A-CATALOGNUM B-EPOCHTIME C-DECAY D-ELSETNUM E-INCLINATION F-RAAN G-ECCENTRICITY H-ARGPERIGEE I-MNANOM J-MNMOTION K-ORBITNUM Z-CHECKSUM
TO ALL RADIO AMATEURS BT
AO-07 1 07530U 74089B 11293.61105342 -.00000027 00000-0 10000-3 0 2099 2 07530 101.3970 295.2193 0012226 033.1891 326.9941 12.53584769689903 FO-29 1 24278U 96046B 11293.40202742 .00000039 00000-0 79190-4 0 6882 2 24278 098.5658 060.7687 0349873 292.8986 063.5579 13.52966400749391 SO-33 1 25509U 98061B 11292.28413026 .00000777 00000-0 14023-3 0 00801 2 25509 031.4355 262.4046 0354001 246.9545 109.3368 14.28468305678031 RS-22 1 27939U 03042A 11293.73977395 .00000930 00000-0 18717-3 0 7352 2 27939 097.8305 141.6448 0012782 311.4181 048.5943 14.63691445430701 VO-52 1 28650U 05017B 11292.72010303 .00001462 00000-0 18815-3 0 09297 2 28650 097.6290 330.1987 0027982 112.5867 247.8315 14.82270669349196 SO-67 1 35870U 09049F 11293.74853459 .00005891 00000-0 26519-3 0 3315 2 35870 097.2671 332.8620 0001440 349.2040 147.4461 15.21444405116029 HO-68 1 36122U 09072B 11293.72757007 -.00000044 00000-0 00000 0 0 8484 2 36122 100.4005 352.5540 0007275 300.8668 059.1739 13.16289106 88751 UO-11 1 14781U 84021B 11293.34834311 .00001095 00000-0 15130-3 0 6848 2 14781 097.9893 349.5644 0010113 092.0896 268.1472 14.80089468484300 AO-16 1 20439U 90005D 11293.86820936 .00000237 00000-0 10418-3 0 3072 2 20439 098.3986 239.3691 0011030 146.2646 213.9240 14.31954608135607 LO-19 1 20442U 90005G 11292.88012120 .00000345 00000-0 14342-3 0 02423 2 20442 098.3632 242.2932 0012519 143.5408 216.6630 14.32177773135647 AO-27 1 22825U 93061C 11293.80276341 .00000217 00000-0 10201-3 0 9419 2 22825 098.5437 235.7378 0007604 266.3069 093.7270 14.29377010942132 IO-26 1 22826U 93061D 11293.56911924 .00000201 00000-0 95333-4 0 6865 2 22826 098.5377 235.9441 0008006 261.7886 098.2389 14.29641829942225 GO-32 1 25397U 98043D 11293.82574986 .00000051 00000-0 40419-4 0 6080 2 25397 098.3396 279.7412 0000276 261.1866 098.9267 14.23226082689838 NO-44 1 26931U 01043C 11292.63419266 .00000208 00000-0 11323-3 0 8768 2 26931 067.0540 022.8546 0004896 260.4103 099.6464 14.29694873524715 SO-50 1 27607U 02058C 11292.54543498 .00001316 00000-0 22061-3 0 5939 2 27607 064.5593 309.7489 0081836 295.4180 063.8489 14.71882273474399 CO-55 1 27844U 03031E 11293.59631462 .00000321 00000-0 16850-3 0 2255 2 27844 098.7075 300.4872 0009154 193.5179 166.5754 14.20865995430720 CO-57 1 27848U 03031J 11293.55940764 .00000277 00000-0 14873-3 0 1716 2 27848 098.7142 299.6840 0009168 198.6468 161.4388 14.20638804430662 AO-51 1 28375U 04025K 11292.63066281 .00000255 00000-0 89003-4 0 01003 2 28375 098.1136 264.6347 0084997 052.8659 308.0269 14.40798243383980 CP3 1 31129U 07012N 11292.48803049 .00000839 00000-0 20152-3 0 09990 2 31129 097.8925 309.4885 0102771 154.2002 206.4399 14.52613108238880 CO-65 1 32785U 08021C 11292.70796707 .00001810 00000-0 23302-3 0 01281 2 32785 097.8345 354.1339 0015680 127.5104 232.7507 14.82228124187984 PRISM 1 33493U 09002B 11293.75245259 .00004133 00000-0 52396-3 0 718 2 33493 098.1415 064.3446 0019602 358.1701 001.9456 14.82178198148111 SOHLA-1 1 33496U 09002E 11292.91675774 .00000690 00000-0 12405-3 0 05588 2 33496 098.0899 041.5548 0007559 086.5705 273.6358 14.69699695146801 TISAT-1 1 36799U 10035E 11293.76320589 .00002671 00000-0 35241-3 0 3414 2 36799 098.0900 003.1919 0014282 228.7805 131.2195 14.80870088 68891 STUDSAT 1 36801U 10035G 11292.80445848 .00006620 00000-0 85160-3 0 2599 2 36801 098.0946 002.1911 0012808 220.3362 139.6906 14.81409414 68742 OOREOS 1 37224U 10062C 11283.12196780 .00000955 00000-0 14226-3 0 03021 2 37224 071.9656 145.3580 0018647 057.9354 302.3616 14.77183931047847 FO-69 1 37227U 0 11292.50605193 .00000745 00000-0 11418-3 0 00035 2 37227 071.9688 125.1347 0015536 047.3200 312.9271 14.76695150000415 NANOSALD 1 37361U 0 11242.25215765 .00180112 00000-0 75811-2 0 03512 2 37361 071.9735 221.4469 0025730 245.3422 114.7284 15.22200108033319 FO-70 1 37380U 0 11291.99748676 .00000704 00000-0 10886-3 0 00023 2 37380 071.9709 126.5130 0016141 045.0168 315.2296 14.76457361000238 NOAA-10 1 16969U 86073A 11292.97663421 .00000101 00000-0 58788-4 0 06807 2 16969 098.6087 321.0064 0011592 218.2969 141.7392 14.27486264305450 NOAA-11 1 19531U 88089A 11292.80010442 .00000238 00000-0 14531-3 0 06713 2 19531 098.7485 017.8782 0010958 189.3072 170.7917 14.14930029190373 NOAA-12 1 21263U 91032A 11292.93889198 .00000058 00000-0 43576-4 0 01825 2 21263 098.7459 310.5351 0013667 178.4514 181.6712 14.25445465062182 MET-3/5 1 21655U 91056A 11293.78573514 .00000051 00000-0 10000-3 0 2382 2 21655 082.5573 322.0371 0013015 198.2990 161.7625 13.17031225970253 MET-2/21 1 22782U 93055A 11293.42983125 .00000155 00000-0 12685-3 0 2341 2 22782 082.5487 223.5043 0024011 106.1978 254.1832 13.83665752915877 OKEAN-4 1 23317U 94066A 11292.97725635 .00001765 00000-0 21214-3 0 07394 2 23317 082.5379 256.5948 0023847 068.8008 291.5750 14.83226719919040 NOAA-14 1 23455U 94089A 11292.94362379 .00000059 00000-0 54271-4 0 06676 2 23455 098.8459 014.2958 0008720 288.7034 071.3188 14.13839474866701 NOAA-15 1 25338U 98030A 11292.80223428 .00000142 00000-0 79418-4 0 09894 2 25338 098.6689 277.3198 0011654 090.7575 269.4944 14.24964361698478 RESURS 1 25394U 98043A 11293.50933009 .00000064 00000-0 45541-4 0 9210 2 25394 098.3063 289.6685 0000562 194.1066 166.0099 14.24245898690146 FENGYUN1 1 25730U 99025A 11292.96123438 .00001997 00000-0 11767-2 0 04505 2 25730 098.8258 251.4858 0024383 329.7011 030.2748 14.08919904640633 OKEAN-0 1 25860U 99039A 11293.49010240 .00000802 00000-0 12982-3 0 4436 2 25860 097.9009 256.6051 0000975 042.4840 317.6444 14.73883068659114 NOAA-16 1 26536U 00055A 11292.80620436 .00000158 00000-0 11041-3 0 04715 2 26536 099.1288 325.8133 0011106 045.8012 314.4075 14.12654588570959 NOAA-17 1 27453U 02032A 11292.65905608 .00000102 00000-0 61832-4 0 04556 2 27453 098.3666 326.5758 0012285 141.1561 219.0506 14.24328068484371 NOAA-18 1 28654U 05018A 11292.64620505 .00000429 00000-0 26111-3 0 09339 2 28654 099.0123 244.1852 0015112 113.7695 246.5074 14.11530600330486 NOAA-19 1 33591U 09005A 11292.67098614 .00000554 00000-0 33114-3 0 01240 2 33591 098.8375 230.7869 0013970 347.5544 012.5256 14.11222571138942 HUBBLE 1 20580U 90037B 11292.35114966 .00002871 00000-0 20330-3 0 08543 2 20580 028.4708 285.2475 0003015 005.0192 355.0835 15.01644613978335 ISS 1 25544U 98067A 11292.96119193 .00023594 00000-0 29146-3 0 02726 2 25544 051.6398 252.6197 0019187 333.4224 098.8584 15.59806961740398 CO-58 1 28895U 05043F 11292.64690769 .00001204 00000-0 25830-3 0 29 2 28895 097.9472 164.0979 0017678 186.2705 173.8269 14.60228535318404 FALCON 1 30776U 07006E 11292.50589563 .00005521 00000-0 38104-3 0 1963 2 30776 035.4334 310.8019 0001389 068.0135 292.0728 15.05275862253789 MAST 1 31126U 07012K 11293.64443729 .00000762 00000-0 18085-3 0 2889 2 31126 097.8877 313.7389 0094986 139.6192 221.2081 14.53841895239314 CAPE1 1 31130U 07012P 11293.81548469 .00000568 00000-0 14014-3 0 3007 2 31130 097.8922 310.4931 0102742 150.4490 210.2550 14.52513096238876 COMPASS 1 32787U 08021E 11292.66597363 .00003248 00000-0 40736-3 0 01226 2 32787 097.8348 354.0904 0016352 127.3195 232.9551 14.82779459188008 AAUSAT2 1 32788U 08021F 11292.61325061 .00004074 00000-0 50655-3 0 01146 2 32788 097.8345 354.3056 0016317 128.1236 232.1450 14.82995502188013 DO-64 1 32789U 08021G 11293.25120120 .00005353 00000-0 65270-3 0 1271 2 32789 097.8446 356.1925 0016004 124.7018 235.5704 14.83683276188128 CO-66 1 32791U 08021J 11293.72291200 .00002321 00000-0 29549-3 0 1163 2 32791 097.8365 355.0217 0016890 123.7601 236.5226 14.82415369188106 RS-30 1 32953U 08025A 11293.79056131 .00000010 00000-0 00000 0 0 1863 2 32953 082.4981 084.6274 0019593 111.8585 248.4582 12.43016025154695 TACSAT-3 1 35001U 09028A 11292.95472701 .00056865 00000-0 81581-3 0 07318 2 35001 040.4515 132.5781 0015119 052.7420 307.4777 15.55089473136466 PHARMSAT 1 35002U 09028B 11293.56808109 .00042960 00000-0 65628-3 0 6798 2 35002 040.4680 127.7195 0018374 069.0059 291.2752 15.53402527136572 HAWKSAT1 1 35003U 09028C 11278.76493853 .05638703 71200-5 11831-2 0 08211 2 35003 040.4370 161.0594 0006849 275.9761 084.3784 16.29831142134897 CP6 1 35004U 09028D 11247.64656856 .16152067 73217-5 10011-2 0 7842 2 35004 040.4403 342.9642 0002956 038.0069 322.2231 16.41039951130139 METEOR-M 1 35865U 09049A 11293.76389016 .00000010 00000-0 24355-4 0 8291 2 35865 098.6913 347.1674 0003259 037.5508 322.5903 14.21842586108435 RS-38 1 35869U 09049E 11293.74822055 .00000079 00000-0 55486-4 0 8090 2 35869 098.6888 347.1793 0005272 035.3593 324.7938 14.22026513108447 ARISSAT1 1 37772U 98067CK 11293.77958782 .00117600 00000-0 98348-3 0 2370 2 37772 051.6376 246.8092 0007741 008.0200 066.5222 15.69099575 12121 SRMSAT 1 37839U 11058B 11292.62968901 .00000619 00000-0 19019-3 0 104 2 37839 019.9628 021.5381 0019280 083.5148 276.7407 14.11974518 1056 JUGNU 1 37841U 11058D 11293.55958539 .00000264 00000-0 00000 0 0 96 2 37841 019.9730 016.0842 0011653 070.6290 289.5438 14.10074334 1181 /EX
participants (1)
-
Ray Hoad